Weather History for Frederick, OK

Change the Weather History Date:

Tuesday, June 4, 2013

  Actual Average (KLTS) Record (KLTS)
Temperature  
Mean Temperature 82 °F -  
Max Temperature 99 °F 86 °F 101 °F (2014)
Min Temperature 66 °F 64 °F 61 °F (2007)
Cooling Degree Days 17    
Growing Degree Days 32 (Base 50)    
Moisture  
Dew Point 62 °F    
Average Humidity 60    
Maximum Humidity 94    
Minimum Humidity 31    
Precipitation  
Precipitation 0.10 in - - ()
Sea Level Pressure  
Sea Level Pressure 29.75 in    
Wind  
Wind Speed 18 mph (ESE)    
Max Wind Speed 30 mph    
Max Gust Speed 37 mph    
Visibility 10 miles    
Events Rain , Thunderstorm    
Averages and records for this station are not official NWS values.
T = Trace of Precipitation, MM = Missing Value Source: NWS Daily Summary

Daily Weather History Graph

Daily Weather History Graph

Search for Another Location

Airport:

Trip Planner

Search our weather history database for the weather conditions in past years. The results will help you decide how hot, cold, wet, or windy it might be!

Date:

Astronomy

Jun. 04, 2013 Rise Set
Actual Time 6:24 AM CDT 8:44 PM CDT
Civil Twilight 5:55 AM CDT 9:13 PM CDT
Nautical Twilight 5:19 AM CDT 9:49 PM CDT
Astronomical Twilight 4:40 AM CDT 10:28 PM CDT
Moon 3:46 AM CDT (6/4) 5:22 PM CDT (6/4)
Length of Visible Light 15h 18m
Length of Day
14h 20m
Waning Crescent, 14% of the Moon is Illuminated
Jun 4
Waning Crescent
Jun 8
New
Jun 16
First Quarter
Jun 23
Full
Jun 29
Last Quarter

Hourly Weather History & Observations

Time (CDT) Temp. Heat Index Dew Point Humidity Pressure Visibility Wind Dir Wind Speed Gust Speed Precip Events Conditions
12:53 AM 79.0 °F - 55.9 °F 45% 29.71 in 10.0 mi SSE 17.3 mph 23.0 mph N/A   Clear
1:53 AM 77.0 °F - 55.9 °F 48% 29.70 in 10.0 mi SE 12.7 mph - N/A   Clear
2:53 AM 75.9 °F - 57.0 °F 52% 29.68 in 10.0 mi SE 15.0 mph - N/A   Clear
3:53 AM 73.9 °F - 57.9 °F 57% 29.70 in 10.0 mi ESE 10.4 mph - N/A   Clear
4:53 AM 71.1 °F - 57.0 °F 61% 29.74 in 10.0 mi NE 10.4 mph - N/A   Clear
5:15 AM 71.6 °F - 59.0 °F 64% 29.85 in 10.0 mi NNE 16.1 mph - 0.00 in Rain , Thunderstorm Light Rain
5:53 AM 69.1 °F - 63.0 °F 81% 29.83 in 9.0 mi NE 18.4 mph - 0.10 in Rain , Thunderstorm Light Thunderstorms and Rain
6:36 AM 66.2 °F - 62.6 °F 88% 29.85 in 10.0 mi East 24.2 mph 32.2 mph 0.00 in   Scattered Clouds
6:53 AM 66.0 °F - 63.0 °F 90% 29.78 in 10.0 mi East 21.9 mph 29.9 mph 0.00 in   Clear
7:08 AM 66.2 °F - 62.6 °F 88% 29.82 in 10.0 mi East 26.5 mph 33.4 mph N/A Thunderstorm Clear
7:23 AM 66.2 °F - 62.6 °F 88% 29.84 in 10.0 mi East 21.9 mph 28.8 mph N/A   Clear
7:31 AM 66.2 °F - 62.6 °F 88% 29.84 in 10.0 mi East 24.2 mph 28.8 mph N/A Thunderstorm Clear
7:48 AM 66.2 °F - 64.4 °F 94% 29.83 in 10.0 mi East 20.7 mph 29.9 mph N/A   Clear
7:53 AM 66.9 °F - 64.0 °F 90% 29.78 in 10.0 mi East 20.7 mph 29.9 mph N/A   Clear
8:53 AM 70.0 °F - 64.9 °F 84% 29.78 in 10.0 mi SE 21.9 mph 28.8 mph N/A   Clear
9:53 AM 75.0 °F - 64.9 °F 71% 29.78 in 10.0 mi SE 24.2 mph 31.1 mph N/A   Clear
10:53 AM 79.0 °F - 64.0 °F 60% 29.76 in 10.0 mi SE 29.9 mph 36.8 mph N/A   Clear
11:53 AM 84.9 °F 86.6 °F 64.9 °F 51% 29.76 in 10.0 mi SSE 25.3 mph 35.7 mph N/A   Clear
12:53 PM 88.0 °F 89.6 °F 64.9 °F 46% 29.74 in 10.0 mi South 20.7 mph 32.2 mph N/A   Clear
1:53 PM 91.0 °F 93.0 °F 64.9 °F 42% 29.72 in 10.0 mi SSE 20.7 mph 28.8 mph N/A   Clear
2:53 PM 93.9 °F 95.6 °F 64.0 °F 37% 29.70 in 10.0 mi SSW 21.9 mph 26.5 mph N/A   Clear
3:53 PM 96.1 °F 98.3 °F 64.0 °F 35% 29.69 in 10.0 mi SSE 10.4 mph - N/A   Partly Cloudy
4:53 PM 98.1 °F 99.6 °F 63.0 °F 31% 29.67 in 10.0 mi SSE 12.7 mph 20.7 mph N/A   Clear
5:53 PM 97.0 °F 98.3 °F 63.0 °F 32% 29.65 in 10.0 mi ESE 8.1 mph - N/A   Clear
6:53 PM 93.0 °F 95.0 °F 64.9 °F 39% 29.65 in 10.0 mi East 20.7 mph 31.1 mph N/A   Clear
7:53 PM 90.0 °F 91.7 °F 64.9 °F 43% 29.67 in 10.0 mi East 24.2 mph 32.2 mph N/A   Clear
8:53 PM 84.9 °F 86.6 °F 64.9 °F 51% 29.70 in 10.0 mi East 20.7 mph - N/A   Clear
9:53 PM 84.0 °F 85.4 °F 64.0 °F 51% 29.72 in 10.0 mi ESE 18.4 mph 26.5 mph N/A   Clear
10:54 PM 82.0 °F 83.4 °F 64.0 °F 54% 29.73 in - ESE 15.0 mph - N/A   Unknown
11:53 PM 81.0 °F 81.9 °F 62.1 °F 52% 29.73 in 10.0 mi ESE 12.7 mph - N/A   Clear